Sioux Falls, SD

10:16 PM CDT on April 26, 2018 (GMT -0500)
Foss

Weather History for KFSD - July, 2013

Change the Weather History Date:

Friday, July 5, 2013

  Actual Average Record
Temperature  
Mean Temperature 76 °F 73 °F  
Max Temperature 84 °F 84 °F 109 °F (1936)
Min Temperature 68 °F 61 °F 39 °F (1972)
Degree Days  
Heating Degree Days 0 0  
Month to date heating degree days 0 0  
Since 1 June heating degree days 69 51  
Since 1 July heating degree days 0 0  
Cooling Degree Days 11 8  
Month to date cooling degree days 31 39  
Year to date cooling degree days 209 210  
Since 1 June cooling degree days 167 174  
Growing Degree Days 26 (Base 50)    
Moisture  
Dew Point 61 °F    
Average Humidity 62    
Maximum Humidity 73    
Minimum Humidity 51    
Precipitation  
Precipitation T in 0.11 in 2.29 in (1982)
Month to date precipitation 0.05 0.53  
Year to date precipitation 16.64 13.78  
Snow  
Snow 0.00 in 0.00 in 0.00 in ()
Month to date snowfall 0.0 0.0  
Since 1 June snowfall 0.0 0.0  
Since 1 July snowfall 0.0 0.0  
Snow Depth 0.00 in    
Sea Level Pressure  
Sea Level Pressure 29.79 in    
Wind  
Wind Speed 12 mph (South)    
Max Wind Speed 20 mph    
Max Gust Speed 26 mph    
Visibility 10 miles    
Events Rain    
T = Trace of Precipitation, MM = Missing Value Source: NWS Daily Summary

Daily Weather History Graph

Daily Weather History Graph

Search for Another Location

Airport or City:

Astronomy

Jul. 05, 2013 Rise Set
Actual Time 5:52 AM CDT 9:10 PM CDT
Civil Twilight 5:16 AM CDT 9:46 PM CDT
Nautical Twilight 4:30 AM CDT 10:32 PM CDT
Astronomical Twilight 3:33 AM CDT 11:28 PM CDT
Moon 3:54 AM CDT (7/5) 7:05 PM CDT (7/5)
Length of Visible Light 16h 29m
Length of Day
15h 18m
Waning Crescent, 6% of the Moon is Illuminated
Jul 5
Waning Crescent
Jul 8
New
Jul 15
First Quarter
Jul 22
Full
Jul 29
Last Quarter

Hourly Weather History & Observations

Time (CDT) Temp. Heat Index Dew Point Humidity Pressure Visibility Wind Dir Wind Speed Gust Speed Precip Events Conditions
12:56 AM 73.9 °F - 55.0 °F 52% 29.82 in 10.0 mi South 11.5 mph - N/A   Clear
1:56 AM 72.0 °F - 55.9 °F 57% 29.82 in 10.0 mi South 10.4 mph - N/A   Clear
2:56 AM 73.0 °F - 55.9 °F 55% 29.81 in 10.0 mi South 13.8 mph - N/A   Mostly Cloudy
3:56 AM 72.0 °F - 57.0 °F 59% 29.80 in 10.0 mi South 15.0 mph - N/A   Scattered Clouds
4:56 AM 70.0 °F - 57.9 °F 65% 29.80 in 10.0 mi South 11.5 mph 20.7 mph 0.00 in Rain Light Rain
5:56 AM 70.0 °F - 57.0 °F 63% 29.79 in 10.0 mi South 13.8 mph 21.9 mph 0.00 in   Overcast
6:56 AM 69.1 °F - 57.9 °F 68% 29.81 in 10.0 mi South 8.1 mph - N/A   Mostly Cloudy
7:56 AM 70.0 °F - 60.1 °F 71% 29.81 in 10.0 mi South 11.5 mph - N/A   Mostly Cloudy
8:56 AM 72.0 °F - 61.0 °F 68% 29.81 in 10.0 mi South 11.5 mph - N/A   Mostly Cloudy
9:56 AM 75.0 °F - 62.1 °F 64% 29.81 in 10.0 mi SSW 9.2 mph - N/A   Mostly Cloudy
10:56 AM 78.1 °F - 63.0 °F 60% 29.81 in 10.0 mi SSW 11.5 mph - N/A   Mostly Cloudy
11:56 AM 79.0 °F - 64.0 °F 60% 29.80 in 10.0 mi SSW 8.1 mph - N/A   Mostly Cloudy
12:56 PM 82.0 °F 83.1 °F 63.0 °F 52% 29.79 in 10.0 mi SSW 13.8 mph 23.0 mph N/A   Mostly Cloudy
1:56 PM 82.0 °F 83.4 °F 64.0 °F 54% 29.79 in 10.0 mi SSW 10.4 mph 19.6 mph N/A   Mostly Cloudy
2:56 PM 84.0 °F 85.8 °F 64.9 °F 53% 29.78 in 10.0 mi SSW 13.8 mph - N/A   Mostly Cloudy
3:56 PM 82.9 °F 84.6 °F 64.9 °F 54% 29.77 in 10.0 mi South 16.1 mph 23.0 mph N/A   Mostly Cloudy
4:56 PM 82.9 °F 84.4 °F 64.0 °F 53% 29.77 in 10.0 mi SSW 13.8 mph 20.7 mph N/A   Mostly Cloudy
5:56 PM 84.0 °F 86.3 °F 66.0 °F 55% 29.77 in 10.0 mi South 15.0 mph 21.9 mph N/A   Mostly Cloudy
6:56 PM 82.0 °F 83.4 °F 64.0 °F 54% 29.78 in 10.0 mi SSW 9.2 mph 18.4 mph N/A   Mostly Cloudy
7:56 PM 82.0 °F 83.4 °F 64.0 °F 54% 29.77 in 10.0 mi South 9.2 mph - N/A   Overcast
8:56 PM 81.0 °F 82.5 °F 64.0 °F 56% 29.76 in 10.0 mi South 13.8 mph - N/A   Overcast
9:56 PM 79.0 °F - 64.0 °F 60% 29.78 in 10.0 mi South 11.5 mph - N/A   Mostly Cloudy
10:56 PM 77.0 °F - 64.0 °F 64% 29.79 in 10.0 mi South 9.2 mph - N/A   Mostly Cloudy
11:56 PM 75.9 °F - 64.0 °F 67% 29.79 in 10.0 mi SSE 9.2 mph - N/A   Mostly Cloudy